Burlington, WA
on Wednesday, November 7, 2012

Wednesday
Previous Day Next Day
Daily Summary
 ActualAverage (KBLI)Record (KBLI)
Temperature
Mean Temperature °F 45°F  
Max Temperature 51°F 52°F 79°F (2001)
Min Temperature 42°F 38°F 22°F (2003)
Degree Days
Heating Degree Days 18 20  
Month to date heating degree days 135  
Cooling Degree Days 0 0  
Month to date cooling degree days 0  
Year to date cooling degree days 42  
Moisture
Dew Point 43°F   
Average Humidity 84    
Maximum Humidity 100    
Minimum Humidity 62    
Precipitation
Precipitation 0.00 in 0.20 in 1.82 in (1995)
Month to date precipitation 1.33  
Year to date precipitation 27.14  
Wind
Wind Speed 4 mph   
Max Wind Speed 10 mph   
Max Gust Speed mph   
Visibility 10 miles   
Events     

Key: T is trace of precipitation, MM is missing value
Source: NWS Daily Summary
Time(PST)TemperatureDew PointHumidity Pressure Visibility Wind DirectionWind SpeedGust SpeedPrecipitationEvents Conditions
12:15 AM 50.0°F 46.4°F 87% 30.03 in 10.0 miles WSW 3.5 mph - 0.00 in   Overcast
12:35 AM 51.8°F 44.6°F 76% 30.03 in 10.0 miles Calm Calm - 0.00 in   Overcast
12:55 AM 50.0°F 42.8°F 76% 30.03 in 10.0 miles WSW 3.5 mph - 0.00 in   Mostly Cloudy
1:15 AM 50.0°F 42.8°F 76% 30.03 in 10.0 miles WNW 5.8 mph - 0.00 in   Scattered Clouds
1:35 AM 48.2°F 42.8°F 82% 30.03 in 10.0 miles WNW 6.9 mph - 0.00 in   Scattered Clouds
1:55 AM 48.2°F 42.8°F 82% 30.04 in 10.0 miles WNW 4.6 mph - 0.00 in   Mostly Cloudy
2:15 AM 48.2°F 44.6°F 87% 30.04 in 10.0 miles West 6.9 mph - 0.00 in   Overcast
2:35 AM 48.2°F 44.6°F 87% 30.05 in 10.0 miles West 4.6 mph - 0.00 in   Scattered Clouds
2:55 AM 48.2°F 44.6°F 87% 30.06 in 10.0 miles North 5.8 mph - 0.00 in   Scattered Clouds
3:35 AM 46.4°F 44.6°F 93% 30.08 in 10.0 miles ESE 3.5 mph - 0.00 in   Partly Cloudy
4:15 AM 46.4°F 42.8°F 87% 30.08 in 10.0 miles SSW 5.8 mph - 0.00 in   Clear
4:35 AM 44.6°F 42.8°F 93% 30.09 in 10.0 miles ENE 4.6 mph - 0.00 in   Clear
4:55 AM 44.6°F 42.8°F 93% 30.09 in 10.0 miles Calm Calm - 0.00 in   Scattered Clouds
5:15 AM 44.6°F 42.8°F 93% 30.09 in 10.0 miles Calm Calm - 0.00 in   Partly Cloudy
5:35 AM 44.6°F 42.8°F 93% 30.10 in 10.0 miles ESE 4.6 mph - 0.00 in   Clear
5:55 AM 42.8°F 42.8°F 100% 30.10 in 10.0 miles North 3.5 mph - 0.00 in   Partly Cloudy
6:15 AM 42.8°F 42.8°F 100% 30.11 in 10.0 miles Calm Calm - 0.00 in   Partly Cloudy
6:35 AM 42.8°F 42.8°F 100% 30.11 in 10.0 miles SSW 3.5 mph - 0.00 in   Scattered Clouds
6:55 AM 42.8°F 42.8°F 100% 30.11 in 10.0 miles NE 3.5 mph - 0.00 in   Mostly Cloudy
7:15 AM 44.6°F 42.8°F 93% 30.11 in 10.0 miles Calm Calm - 0.00 in   Overcast
7:35 AM 46.4°F 41.0°F 81% 30.12 in 10.0 miles WSW 4.6 mph - 0.00 in   Mostly Cloudy
7:55 AM 46.4°F 41.0°F 81% 30.13 in 10.0 miles WNW 4.6 mph - 0.00 in   Mostly Cloudy
8:15 AM 46.4°F 41.0°F 81% 30.13 in 9.0 miles Calm Calm - 0.00 in   Overcast
8:35 AM 46.4°F 42.8°F 87% 30.13 in 9.0 miles Calm Calm - 0.00 in   Mostly Cloudy
8:55 AM 46.4°F 44.6°F 93% 30.13 in 9.0 miles Calm Calm - 0.00 in   Mostly Cloudy
9:15 AM 48.2°F 44.6°F 87% 30.13 in 9.0 miles SSE 3.5 mph - 0.00 in   Mostly Cloudy
9:35 AM 48.2°F 44.6°F 87% 30.13 in 9.0 miles South 4.6 mph - 0.00 in   Mostly Cloudy
9:55 AM 48.2°F 44.6°F 87% 30.14 in 10.0 miles South 8.1 mph - 0.00 in   Mostly Cloudy
10:15 AM 48.2°F 44.6°F 87% 30.14 in 10.0 miles South 5.8 mph - 0.00 in   Mostly Cloudy
10:35 AM 50.0°F 44.6°F 82% 30.14 in 10.0 miles South 6.9 mph - 0.00 in   Mostly Cloudy
11:15 AM 51.8°F 46.4°F 82% 30.14 in 9.0 miles South 6.9 mph - 0.00 in   Scattered Clouds
11:35 AM 51.8°F 44.6°F 76% 30.13 in 9.0 miles SSW 8.1 mph - 0.00 in   Partly Cloudy
11:55 AM 51.8°F 44.6°F 76% 30.13 in 9.0 miles SSW 8.1 mph - 0.00 in   Clear
12:15 PM 51.8°F 42.8°F 71% 30.12 in 10.0 miles SW 8.1 mph - 0.00 in   Clear
12:35 PM 51.8°F 42.8°F 71% 30.12 in 8.0 miles SSW 8.1 mph - 0.00 in   Scattered Clouds
12:55 PM 51.8°F 42.8°F 71% 30.12 in 9.0 miles SSW 5.8 mph - 0.00 in   Mostly Cloudy
1:15 PM 51.8°F 42.8°F 71% 30.12 in 9.0 miles West 4.6 mph - 0.00 in   Scattered Clouds
1:35 PM 51.8°F 39.2°F 62% 30.12 in 9.0 miles WSW 5.8 mph - 0.00 in   Partly Cloudy
1:55 PM 51.8°F 39.2°F 62% 30.11 in 8.0 miles Calm Calm - 0.00 in   Partly Cloudy
2:15 PM 51.8°F 41.0°F 67% 30.11 in 8.0 miles Calm Calm - 0.00 in   Mostly Cloudy
2:35 PM 51.8°F 42.8°F 71% 30.11 in 9.0 miles SSW 4.6 mph - 0.00 in   Mostly Cloudy
3:15 PM 51.8°F 42.8°F 71% 30.10 in 9.0 miles SW 3.5 mph - 0.00 in   Mostly Cloudy
3:35 PM 51.8°F 42.8°F 71% 30.10 in 9.0 miles South 4.6 mph - 0.00 in   Mostly Cloudy
3:55 PM 50.0°F 42.8°F 76% 30.09 in 10.0 miles South 3.5 mph - 0.00 in   Mostly Cloudy
4:15 PM 48.2°F 42.8°F 82% 30.09 in 10.0 miles Calm Calm - 0.00 in   Mostly Cloudy
4:35 PM 48.2°F 42.8°F 82% 30.09 in 10.0 miles East 6.9 mph - 0.00 in   Scattered Clouds
4:55 PM 46.4°F 41.0°F 81% 30.08 in 10.0 miles East 6.9 mph - 0.00 in   Mostly Cloudy
5:15 PM 46.4°F 42.8°F 87% 30.07 in 10.0 miles ENE 5.8 mph - 0.00 in   Scattered Clouds
5:35 PM 46.4°F 42.8°F 87% 30.07 in 10.0 miles ENE 6.9 mph - 0.00 in   Mostly Cloudy
5:55 PM 46.4°F 42.8°F 87% 30.07 in 10.0 miles East 9.2 mph - 0.00 in   Mostly Cloudy
6:15 PM 44.6°F 42.8°F 93% 30.06 in 10.0 miles East 6.9 mph - 0.00 in   Mostly Cloudy
6:35 PM 44.6°F 42.8°F 93% 30.06 in 10.0 miles East 4.6 mph - 0.00 in   Mostly Cloudy
6:55 PM 44.6°F 42.8°F 93% 30.06 in 10.0 miles East 10.4 mph - 0.00 in   Mostly Cloudy
7:35 PM 44.6°F 41.0°F 87% 30.05 in 10.0 miles East 8.1 mph - 0.00 in   Scattered Clouds
7:55 PM 44.6°F 41.0°F 87% 30.05 in 10.0 miles East 8.1 mph - 0.00 in   Scattered Clouds
8:15 PM 42.8°F 39.2°F 87% 30.04 in 10.0 miles East 3.5 mph - 0.00 in   Partly Cloudy
8:35 PM 42.8°F 41.0°F 93% 30.03 in 10.0 miles East 8.1 mph - 0.00 in   Clear
8:55 PM 42.8°F 41.0°F 93% 30.03 in 10.0 miles East 8.1 mph - 0.00 in   Partly Cloudy
9:15 PM 42.8°F 41.0°F 93% 30.02 in 10.0 miles ENE 10.4 mph - 0.00 in   Clear
9:35 PM 42.8°F 39.2°F 87% 30.02 in 10.0 miles ENE 6.9 mph - 0.00 in   Clear
9:55 PM 42.8°F 39.2°F 87% 30.02 in 10.0 miles East 8.1 mph - 0.00 in   Partly Cloudy
10:15 PM 42.8°F 41.0°F 93% 30.01 in 10.0 miles ENE 9.2 mph - 0.00 in   Mostly Cloudy
10:35 PM 42.8°F 39.2°F 87% 30.00 in 10.0 miles ENE 8.1 mph - 0.00 in   Mostly Cloudy
11:15 PM 42.8°F 39.2°F 87% 29.99 in 10.0 miles NE 10.4 mph - 0.00 in   Clear
Moon Phase
Nov. 07 Nov. 13 Nov. 20 Nov. 28 Dec. 06
Sunrise:07:06 AM (PST) Moon Rise:No Moon Rise/
Sunset:04:40 PM (PST) Moon Set:01:21 PM (PST)11/7

Copyright © 2014 The Weather Underground, Inc.